Time,TemperatureF,DewpointF,PressureIn,WindDirection,WindDirectionDegrees,WindSpeedMPH,WindSpeedGustMPH,Humidity,HourlyPrecipIn,Conditions,Clouds,dailyrainin,SoftwareType,DateUTC
2013-07-31 00:00:00,84.3,72.6,29.96,SE,135,3.0,6.0,68,0.00,,---,0.00,VWS V14.01,2013-07-31 05:00:00,
2013-07-31 00:30:00,83.5,72.3,29.96,SE,135,2.0,6.0,69,0.00,,---,0.00,VWS V14.01,2013-07-31 05:30:00,
2013-07-31 01:00:00,82.9,72.1,29.97,SSE,158,3.0,9.0,70,0.00,,---,0.00,VWS V14.01,2013-07-31 06:00:00,
2013-07-31 01:30:00,82.8,72.4,29.96,SSE,158,3.0,7.0,71,0.00,,---,0.00,VWS V14.01,2013-07-31 06:30:00,
2013-07-31 02:00:00,83.2,70.7,29.96,SSE,158,6.0,14.0,66,0.00,,---,0.00,VWS V14.01,2013-07-31 07:00:00,
2013-07-31 02:30:00,83.0,70.5,29.96,SSE,158,6.0,14.0,66,0.00,,---,0.00,VWS V14.01,2013-07-31 07:30:00,
2013-07-31 03:00:00,82.2,70.2,29.96,SSE,158,5.0,11.0,67,0.00,,---,0.00,VWS V14.01,2013-07-31 08:00:00,
2013-07-31 03:30:00,81.2,70.1,29.96,SSE,158,5.0,10.0,69,0.00,,---,0.00,VWS V14.01,2013-07-31 08:30:00,
2013-07-31 04:00:00,80.7,69.6,29.96,SSE,158,5.0,10.0,69,0.00,,---,0.00,VWS V14.01,2013-07-31 09:00:00,
2013-07-31 04:30:00,80.3,69.2,29.96,SSE,158,4.0,9.0,69,0.00,,---,0.00,VWS V14.01,2013-07-31 09:30:00,
2013-07-31 05:00:00,80.1,69.4,29.96,SSE,158,4.0,9.0,70,0.00,,---,0.00,VWS V14.01,2013-07-31 10:00:00,
2013-07-31 05:30:00,80.2,69.5,29.97,SSE,158,3.0,10.0,70,0.00,,---,0.00,VWS V14.01,2013-07-31 10:30:00,
2013-07-31 06:00:00,79.6,69.4,29.98,SSE,158,4.0,9.0,71,0.00,,---,0.00,VWS V14.01,2013-07-31 11:00:00,
2013-07-31 06:30:00,79.1,70.1,29.99,SSE,158,4.0,9.0,74,0.00,,---,0.00,VWS V14.01,2013-07-31 11:30:00,
2013-07-31 07:00:00,78.7,70.5,30.00,South,180,4.0,9.0,76,0.00,,---,0.00,VWS V14.01,2013-07-31 12:00:00,
2013-07-31 07:30:00,78.3,70.9,30.00,SSE,158,5.0,13.0,78,0.00,,---,0.00,VWS V14.01,2013-07-31 12:30:00,
2013-07-31 08:00:00,78.5,71.8,30.01,SSE,158,4.0,9.0,80,0.00,,---,0.00,VWS V14.01,2013-07-31 13:00:00,
2013-07-31 09:00:00,79.7,72.6,30.02,SSW,202,4.0,13.0,79,0.00,,---,0.00,VWS V14.01,2013-07-31 14:00:00,
2013-07-31 09:30:00,81.7,73.0,30.02,SSW,202,5.0,12.0,75,0.00,,---,0.00,VWS V14.01,2013-07-31 14:30:00,
2013-07-31 10:00:00,82.2,73.1,30.02,SSW,202,4.0,12.0,74,0.00,,---,0.00,VWS V14.01,2013-07-31 15:00:00,
2013-07-31 10:30:00,82.5,73.8,30.02,SSE,158,4.0,10.0,75,0.00,,---,0.00,VWS V14.01,2013-07-31 15:30:00,
2013-07-31 11:00:00,83.6,71.9,30.02,SSW,202,4.0,10.0,68,0.00,,---,0.00,VWS V14.01,2013-07-31 16:00:00,
2013-07-31 11:30:00,87.9,73.7,30.01,South,180,4.0,13.0,63,0.00,,---,0.00,VWS V14.01,2013-07-31 16:30:00,
2013-07-31 12:00:00,89.6,73.4,30.01,SSE,158,5.0,13.0,59,0.00,,---,0.00,VWS V14.01,2013-07-31 17:00:00,
2013-07-31 12:30:00,89.6,72.9,30.00,SSE,158,5.0,14.0,58,0.00,,---,0.00,VWS V14.01,2013-07-31 17:30:00,
2013-07-31 13:00:00,90.8,73.5,29.99,SSE,158,5.0,12.0,57,0.00,,---,0.00,VWS V14.01,2013-07-31 18:00:00,
2013-07-31 13:30:00,89.7,75.0,29.98,SE,135,5.0,9.0,62,0.00,,---,0.00,VWS V14.01,2013-07-31 18:30:00,
2013-07-31 14:00:00,90.6,75.3,29.97,ESE,112,4.0,8.0,61,0.00,,---,0.00,VWS V14.01,2013-07-31 19:00:00,
2013-07-31 15:00:00,96.3,72.2,29.95,SSE,158,3.0,10.0,46,0.00,,---,0.00,VWS V14.01,2013-07-31 20:00:00,
2013-07-31 16:00:00,98.1,73.1,29.92,SSE,158,2.0,10.0,45,0.00,,---,0.00,VWS V14.01,2013-07-31 21:00:00,
2013-07-31 16:30:00,96.9,75.2,29.91,SSE,158,3.0,8.0,50,0.00,,---,0.00,VWS V14.01,2013-07-31 21:30:00,
2013-07-31 17:00:00,94.8,76.1,29.90,ESE,112,3.0,6.0,55,0.00,,---,0.00,VWS V14.01,2013-07-31 22:00:00,
2013-07-31 17:30:00,94.5,74.7,29.89,ESE,112,3.0,6.0,53,0.00,,---,0.00,VWS V14.01,2013-07-31 22:30:00,
2013-07-31 18:00:00,95.0,75.8,29.88,SE,135,2.0,5.0,54,0.00,,---,0.00,VWS V14.01,2013-07-31 23:00:00,
2013-07-31 18:30:00,95.0,76.8,29.88,ESE,112,1.0,5.0,56,0.00,,---,0.00,VWS V14.01,2013-07-31 23:30:00,
2013-07-31 19:00:00,93.8,74.1,29.88,ESE,112,1.0,4.0,53,0.00,,---,0.00,VWS V14.01,2013-08-01 00:00:00,
2013-07-31 19:30:00,92.6,74.6,29.88,SE,135,0.0,2.0,56,0.00,,---,0.00,VWS V14.01,2013-08-01 00:30:00,
2013-07-31 20:00:00,90.3,77.4,29.89,ESE,112,1.0,3.0,66,0.00,,---,0.00,VWS V14.01,2013-08-01 01:00:00,
2013-07-31 20:30:00,88.9,77.0,29.89,East,90,0.0,2.0,68,0.00,,---,0.00,VWS V14.01,2013-08-01 01:30:00,
2013-07-31 21:00:00,86.8,76.3,29.90,East,90,0.0,1.0,71,0.00,,---,0.00,VWS V14.01,2013-08-01 02:00:00,
2013-07-31 21:30:00,87.0,74.3,29.90,East,90,0.0,1.0,66,0.00,,---,0.00,VWS V14.01,2013-08-01 02:30:00,
2013-07-31 22:00:00,86.3,74.9,29.91,East,90,0.0,1.0,69,0.00,,---,0.00,VWS V14.01,2013-08-01 03:00:00,
2013-07-31 22:30:00,86.5,75.1,29.91,East,90,0.0,1.0,69,0.00,,---,0.00,VWS V14.01,2013-08-01 03:30:00,
2013-07-31 23:00:00,85.4,75.8,29.92,East,90,0.0,0.0,73,0.00,,---,0.00,VWS V14.01,2013-08-01 04:00:00,
2013-07-31 23:30:00,85.9,76.2,29.93,East,90,0.0,1.0,73,0.00,,---,0.00,VWS V14.01,2013-08-01 04:30:00,